Weather History for Spokane Fairchild, WA

Change the Weather History Date:

Friday, February 14, 2014

  Actual Average Record
Temperature  
Mean Temperature 38 °F -  
Max Temperature 44 °F 37 °F 44 °F (2011)
Min Temperature 32 °F 24 °F 15 °F (2001)
Degree Days  
Heating Degree Days 27    
Moisture  
Dew Point 34 °F    
Average Humidity 88    
Maximum Humidity 100    
Minimum Humidity 71    
Precipitation  
Precipitation 0.00 in - - ()
Sea Level Pressure  
Sea Level Pressure 29.78 in    
Wind  
Wind Speed 11 mph (South)    
Max Wind Speed 24 mph    
Max Gust Speed 33 mph    
Visibility 9 miles    
Events Rain , Snow    
Averages and records for this station are not official NWS values.
T = Trace of Precipitation, MM = Missing Value Source: NWS Daily Summary

Daily Weather History Graph

Daily Weather History Graph

Search for Another Location

Airport:

Trip Planner

Search our weather history database for the weather conditions in past years. The results will help you decide how hot, cold, wet, or windy it might be!

Date:

Astronomy

Feb. 14, 2014 Rise Set
Actual Time 6:57 AM PST 5:12 PM PST
Civil Twilight 6:25 AM PST 5:44 PM PST
Nautical Twilight 5:49 AM PST 6:20 PM PST
Astronomical Twilight 5:14 AM PST 6:56 PM PST
Moon 5:24 PM PST (2/14) 6:24 AM PST (2/14)
Length of Visible Light 11h 18m
Length of Day
10h 14m
Full, 100% of the Moon is Illuminated
Feb 14
Full
Feb 14
Full
Feb 22
Last Quarter
Mar 1
New
Mar 8
First Quarter

Hourly Weather History & Observations

Time (PST) Temp. Windchill Dew Point Humidity Pressure Visibility Wind Dir Wind Speed Gust Speed Precip Events Conditions
1:10 AM 32.0 °F 24.8 °F 30.2 °F 93% 29.90 in 10.0 mi SE 8.1 mph - N/A   Clear
1:41 AM 33.8 °F 30.8 °F 30.2 °F 87% 29.89 in 10.0 mi SSE 3.5 mph - N/A   Clear
1:58 AM 33.8 °F 27.0 °F 29.5 °F 84% 29.94 in 10.0 mi ESE 8.1 mph - 0.00 in   Clear
2:58 AM 33.3 °F 26.4 °F 29.7 °F 87% 29.90 in 10.0 mi ENE 8.1 mph - N/A   Clear
3:58 AM 32.2 °F 27.7 °F 29.5 °F 90% 29.88 in 10.0 mi East 4.6 mph - N/A   Overcast
4:58 AM 33.6 °F 26.2 °F 28.6 °F 82% 29.87 in 10.0 mi ESE 9.2 mph - N/A   Partly Cloudy
4:59 AM 33.8 °F 26.4 °F 28.4 °F 81% 29.81 in 10.0 mi ESE 9.2 mph - N/A   Partly Cloudy
5:54 AM 35.6 °F 30.7 °F 30.2 °F 81% 29.75 in 10.0 mi ESE 5.8 mph - N/A Rain Light Rain
5:58 AM 36.1 °F 31.4 °F 29.8 °F 78% 29.80 in 10.0 mi ESE 5.8 mph - 0.00 in Rain Light Rain
6:18 AM 33.8 °F 28.6 °F 30.2 °F 87% 29.73 in 10.0 mi East 5.8 mph - N/A Rain Light Rain
6:53 AM 35.6 °F 29.2 °F 32.0 °F 87% 29.73 in 10.0 mi SE 8.1 mph - N/A Rain Light Rain
6:58 AM 35.2 °F 28.1 °F 31.8 °F 87% 29.79 in 10.0 mi SE 9.2 mph - 0.00 in Rain Light Rain
7:08 AM 35.6 °F 28.0 °F 32.0 °F 87% 29.72 in 10.0 mi SE 10.4 mph - N/A Rain Light Rain
7:34 AM 33.8 °F 25.3 °F 32.0 °F 93% 29.72 in 8.0 mi SE 11.5 mph - N/A Rain Light Rain
7:39 AM 33.8 °F 25.8 °F 32.0 °F 93% 29.71 in 9.0 mi SE 10.4 mph - N/A Rain Light Rain
7:44 AM 33.8 °F 26.4 °F 32.0 °F 93% 29.70 in 10.0 mi SE 9.2 mph - N/A Snow Light Snow
7:58 AM 33.6 °F 27.5 °F 32.5 °F 96% 29.78 in 10.0 mi SE 6.9 mph - 0.00 in Rain Light Rain
8:23 AM 32.0 °F 24.8 °F 32.0 °F 100% 29.70 in 4.0 mi SE 8.1 mph - N/A Snow Light Snow
8:33 AM 33.8 °F 28.6 °F 32.0 °F 93% 29.71 in 7.0 mi SE 5.8 mph - N/A Rain Light Rain
8:43 AM 33.8 °F 25.8 °F 32.0 °F 93% 29.70 in 4.0 mi SSE 10.4 mph - N/A Rain Light Rain
8:53 AM 33.8 °F 25.8 °F 32.0 °F 93% 29.69 in 2.5 mi SSE 10.4 mph - N/A Rain Light Rain
8:55 AM 33.8 °F 25.3 °F 32.0 °F 93% 29.69 in 3.0 mi SSE 11.5 mph - N/A Rain Light Rain
8:58 AM 34.3 °F 27.0 °F 33.6 °F 97% 29.75 in 3.0 mi SSE 9.2 mph - 0.00 in Rain Light Rain
9:32 AM 35.6 °F 29.2 °F 33.8 °F 93% 29.68 in 10.0 mi South 8.1 mph - N/A   Overcast
9:42 AM 35.6 °F 28.0 °F 35.6 °F 100% 29.67 in 10.0 mi South 10.4 mph - N/A   Overcast
9:57 AM 37.4 °F 31.4 °F 37.4 °F 100% 29.67 in 10.0 mi South 8.1 mph - N/A   Light Drizzle
9:58 AM 37.0 °F 31.0 °F 36.9 °F 99% 29.73 in 10.0 mi South 8.1 mph - 0.00 in   Light Drizzle
10:03 AM 37.4 °F 29.8 °F 37.4 °F 100% 29.66 in 10.0 mi South 11.5 mph - N/A   Light Drizzle
10:04 AM 37.4 °F 30.3 °F 37.4 °F 100% 29.66 in 10.0 mi South 10.4 mph - N/A   Overcast
10:27 AM 37.4 °F 28.9 °F 37.4 °F 100% 29.67 in 10.0 mi South 13.8 mph - N/A   Light Drizzle
10:37 AM 37.4 °F 28.2 °F 37.4 °F 100% 29.68 in 10.0 mi SSW 16.1 mph 21.9 mph N/A   Overcast
10:39 AM 39.2 °F 30.2 °F 37.4 °F 93% 29.69 in 10.0 mi South 17.3 mph 21.9 mph N/A   Light Drizzle
10:58 AM 38.8 °F 30.0 °F 38.3 °F 98% 29.75 in 10.0 mi SSW 16.1 mph - 0.00 in   Light Drizzle
11:15 AM 39.2 °F 29.3 °F 39.2 °F 100% 29.68 in 10.0 mi SSW 20.7 mph 27.6 mph N/A   Overcast
11:35 AM 41.0 °F 31.1 °F 39.2 °F 93% 29.69 in 10.0 mi SW 23.0 mph 32.2 mph N/A   Overcast
11:50 AM 41.0 °F 31.4 °F 39.2 °F 93% 29.69 in 10.0 mi SSW 21.9 mph 31.1 mph N/A   Overcast
11:58 AM 40.6 °F 31.2 °F 39.2 °F 95% 29.74 in 10.0 mi SW 20.7 mph 29.9 mph 0.00 in   Overcast
12:13 PM 41.0 °F 31.6 °F 39.2 °F 93% 29.70 in 10.0 mi SW 20.7 mph 29.9 mph N/A   Overcast
12:38 PM 42.8 °F 33.3 °F 39.2 °F 87% 29.70 in 10.0 mi SW 24.2 mph 33.4 mph N/A   Mostly Cloudy
12:58 PM 43.7 °F 35.4 °F 39.4 °F 85% 29.70 in 10.0 mi SW 19.6 mph 28.8 mph N/A   Mostly Cloudy
1:28 PM 42.8 °F 33.8 °F 39.2 °F 87% 29.71 in 10.0 mi SW 21.9 mph 26.5 mph N/A   Mostly Cloudy
1:38 PM 42.8 °F 33.8 °F 39.2 °F 87% 29.71 in 10.0 mi SW 21.9 mph 26.5 mph N/A   Scattered Clouds
1:58 PM 43.9 °F 35.4 °F 38.8 °F 82% 29.77 in 10.0 mi SW 20.7 mph 27.6 mph N/A   Mostly Cloudy
2:03 PM 44.6 °F 37.2 °F 39.2 °F 81% 29.72 in 10.0 mi SW 17.3 mph 28.8 mph N/A   Scattered Clouds
2:58 PM 44.8 °F 36.9 °F 36.5 °F 73% 29.80 in 10.0 mi SW 19.6 mph 25.3 mph N/A   Clear
3:26 PM 44.6 °F 36.1 °F 35.6 °F 71% 29.76 in 10.0 mi SW 21.9 mph 28.8 mph N/A   Partly Cloudy
3:43 PM 44.6 °F 37.4 °F 35.6 °F 71% 29.76 in 10.0 mi SW 16.1 mph 23.0 mph N/A   Clear
3:58 PM 43.9 °F 37.9 °F 36.1 °F 74% 29.83 in 10.0 mi WSW 11.5 mph - 0.00 in   Clear
4:58 PM 41.9 °F 35.4 °F 35.6 °F 78% 29.83 in 10.0 mi SSW 11.5 mph - N/A   Clear
5:30 PM 41.0 °F 34.3 °F 33.8 °F 76% 29.78 in 10.0 mi SSW 11.5 mph - N/A   Clear
5:55 PM 41.0 °F 36.4 °F 33.8 °F 76% 29.79 in 10.0 mi SSW 6.9 mph - N/A   Clear
5:58 PM 41.0 °F 36.4 °F 33.8 °F 76% 29.84 in 10.0 mi SSW 6.9 mph - 0.00 in   Clear
6:14 PM 41.0 °F 33.5 °F 33.8 °F 76% 29.80 in 10.0 mi SSW 13.8 mph - N/A   Clear
6:22 PM 39.2 °F 30.5 °F 33.8 °F 81% 29.81 in 10.0 mi SSW 16.1 mph - N/A   Clear
6:58 PM 38.3 °F 30.9 °F 34.2 °F 85% 29.88 in 10.0 mi SSW 11.5 mph - 0.00 in   Partly Cloudy
7:03 PM 39.2 °F 31.6 °F 33.8 °F 81% 29.82 in 10.0 mi SSW 12.7 mph - N/A   Scattered Clouds
7:12 PM 39.2 °F 32.0 °F 33.8 °F 81% 29.82 in 10.0 mi SSW 11.5 mph - N/A   Partly Cloudy
7:58 PM 38.5 °F 32.7 °F 34.2 °F 84% 29.90 in 10.0 mi South 8.1 mph - 0.00 in   Partly Cloudy
8:58 PM 35.6 °F 27.5 °F 33.1 °F 91% 29.92 in 10.0 mi South 11.5 mph - N/A   Clear
8:59 PM 35.6 °F 27.5 °F 32.0 °F 87% 29.86 in 10.0 mi South 11.5 mph - N/A   Clear
9:27 PM 35.6 °F 26.6 °F 32.0 °F 87% 29.86 in 10.0 mi SSW 13.8 mph - N/A   Clear
9:44 PM 35.6 °F 26.2 °F 32.0 °F 87% 29.86 in 10.0 mi South 15.0 mph - N/A   Clear
9:58 PM 34.9 °F 25.7 °F 32.5 °F 91% 29.93 in 10.0 mi SSW 13.8 mph - 0.00 in   Clear
10:03 PM 35.6 °F 26.2 °F 32.0 °F 87% 29.87 in 10.0 mi SSW 15.0 mph 20.7 mph N/A   Clear
10:07 PM 33.8 °F 24.3 °F 32.0 °F 93% 29.87 in 10.0 mi South 13.8 mph 20.7 mph N/A   Clear
10:45 PM 35.6 °F 26.6 °F 32.0 °F 87% 29.87 in 10.0 mi SSW 13.8 mph - N/A   Clear
10:58 PM 34.5 °F 27.9 °F 33.1 °F 94% 29.93 in 10.0 mi SSW 8.1 mph - 0.00 in   Clear
11:45 PM 33.8 °F 27.7 °F 32.0 °F 93% 29.90 in 10.0 mi WSW 6.9 mph - N/A   Partly Cloudy
11:58 PM 34.0 °F 28.0 °F 33.1 °F 96% 29.97 in 10.0 mi SSW 6.9 mph - N/A   Partly Cloudy